Wind_Speed
12 12 11 12 12 12 12 11 10 9 8 8 7 7 7 7 7 7 7 8 7 7 7 7 6 6 5 4 5 5 5 7 8 12 11 11 9 8 7 8 8 7 7 6 7
13 13 12 12 12 12 12 11 11 9 9 9 8 8 8 7 8 8 8 9 9 8 8 8 7 6 6 5 5 6 6 7 8 10 11 11 11 9 9 9 11 10 8 7 5
16 15 14 13 13 13 13 12 11 10 10 10 9 9 8 8 8 10 10 10 10 10 9 8 7 7 7 7 7 7 8 8 8 9 10 11 11 11 11 11 12 12 9 6 5
19 18 17 16 15 14 14 13 12 12 11 11 10 10 9 9 6 8 8 7 7 7 7 8 9 10 9 9 8 7 8 8 8 8 9 12 12 13 13 14 12 11 8 7 6
23 22 20 19 18 17 16 15 14 14 13 13 12 12 12 12 12 12 12 12 12 12 12 12 12 11 10 8 8 8 9 9 9 11 13 14 14 17 15 14 13 11 10 9 8
26 25 24 22 21 20 19 18 17 17 16 15 15 15 16 15 14 15 15 15 14 14 14 14 13 12 12 10 10 9 11 11 12 14 16 17 17 18 16 14 12 13 13 12 11
30 28 27 25 24 23 22 21 20 19 19 18 18 19 19 17 17 16 15 15 15 15 15 14 14 13 13 11 13 13 14 14 12 14 18 19 22 18 15 13 14 15 15 14 14
33 32 30 29 27 26 24 23 22 22 21 21 22 22 23 20 19 19 18 18 18 18 17 17 16 16 16 15 15 15 17 15 11 11 13 13 11 11 12 13 16 18 18 17 17
35 34 33 32 30 28 27 26 25 24 24 24 24 24 25 24 21 20 20 20 20 21 20 20 19 19 19 17 18 17 12 16 15 14 14 15 12 13 15 15 18 19 20 20 21
38 37 36 35 33 30 29 28 28 27 26 26 27 24 24 17 11 14 20 23 23 23 23 23 22 23 23 21 14 11 15 19 18 13 14 18 19 18 17 18 20 22 22 24 24
39 38 38 37 36 33 31 30 29 30 30 28 26 20 23 21 16 17 20 21 21 22 23 23 23 26 20 17 20 19 21 22 22 18 19 20 22 21 24 25 26 28 29 28 25
41 39 39 39 37 36 34 32 30 32 33 32 32 32 31 28 24 22 20 22 23 23 22 23 27 20 19 22 22 24 23 25 24 23 23 25 29 27 30 31 32 31 30 28 26
43 41 40 41 40 39 35 31 30 30 35 39 37 36 33 31 31 32 29 27 26 26 26 27 23 20 21 25 25 27 26 26 24 25 27 28 33 31 30 30 29 30 31 29 26
44 42 44 42 46 39 37 30 29 28 27 41 40 42 41 35 39 33 33 33 33 31 28 25 30 30 30 30 26 28 29 27 26 23 16 13 10 16 20 19 18 13 14 16 18
47 43 45 46 47 42 31 30 27 22 9 16 28 34 35 38 39 38 39 38 37 35 32 26 26 27 28 31 27 29 27 25 23 23 23 20 12 16 17 17 15 16 15 15 16
50 54 49 49 50 41 31 30 26 15 16 13 17 22 29 34 40 41 36 39 40 38 37 37 36 33 31 28 25 26 20 19 14 14 12 25 21 10 18 16 17 18 18 17 16
47 54 62 51 53 40 34 31 25 28 18 23 25 22 24 31 33 37 38 38 36 25 35 38 38 35 34 30 26 23 16 5 5 6 6 11 15 19 13 15 16 18 18 17 18
48 47 57 62 51 42 39 39 26 49 49 24 19 31 28 27 32 32 33 34 34 34 18 18 13 24 30 35 27 29 23 9 7 6 2 11 10 11 24 21 18 17 18 19 18
47 49 51 60 62 45 46 50 69 50 36 42 26 28 34 32 26 31 34 37 35 34 28 14 18 19 23 26 31 25 31 27 7 7 3 10 14 13 17 22 20 20 22 22 18
50 48 55 54 58 48 55 67 61 43 37 33 48 28 35 37 35 32 32 31 38 36 31 23 16 17 24 24 30 26 23 16 14 5 6 7 10 15 24 24 24 25 22 21 21
48 48 59 57 51 57 59 74 62 41 33 37 40 35 36 36 41 42 37 32 22 22 28 34 25 17 24 33 36 33 27 21 16 18 4 4 7 6 19 19 23 21 21 19 18
54 58 56 54 58 62 67 75 60 48 42 38 40 43 42 39 38 41 48 44 29 28 31 34 21 26 31 28 38 39 33 42 22 11 18 15 15 12 16 25 24 20 19 19 19
46 63 62 48 68 67 72 66 68 64 52 56 46 44 42 40 37 41 44 40 40 39 37 31 25 21 17 27 32 42 44 43 44 26 30 13 11 18 22 25 22 20 21 18 18
40 45 58 53 61 71 71 71 70 67 61 57 59 51 40 41 44 39 41 37 42 44 39 36 38 36 37 25 29 45 48 50 48 34 34 46 28 23 27 26 24 29 27 28 22
28 41 33 47 64 65 70 69 72 68 68 51 50 62 60 51 48 59 49 41 39 41 43 46 47 47 52 44 36 33 38 52 57 60 33 41 44 41 36 34 31 30 32 30 29
40 31 43 43 62 59 64 75 71 73 63 58 69 60 56 56 64 56 57 52 57 44 47 53 50 45 52 52 47 44 42 40 44 56 59 42 47 35 34 33 36 36 35 34 33
42 41 26 36 45 49 65 65 71 63 67 76 70 64 61 78 64 57 53 51 55 51 52 56 55 40 39 47 43 36 63 49 47 47 48 48 51 45 41 37 35 36 36 34 30
Wind_Direction
195 195 200 198 196 194 194 194 196 196 196 204 209 216 221 225 228 234 234 238 238 241 241 247 247 245 244 234 219 211 200 195 196 194 202 201 211 222 242 263 272 285 285 277 275
214 211 214 218 214 209 209 207 206 207 213 216 221 226 232 240 245 247 243 245 245 242 243 248 244 233 229 225 227 219 210 211 201 204 201 206 214 229 255 271 285 287 287 281 276
228 228 226 228 229 228 222 221 217 220 223 227 230 235 240 247 253 252 248 247 246 246 238 229 226 223 230 246 252 235 218 212 206 212 206 213 228 246 262 263 273 280 273 266 276
233 235 236 237 237 237 239 235 233 231 235 239 242 246 249 249 249 241 235 226 214 208 220 229 240 247 250 252 244 233 224 214 214 218 227 234 243 260 263 268 273 265 261 267 275
239 239 240 240 240 241 241 241 243 242 241 246 249 250 250 249 244 245 242 239 242 245 243 244 246 253 256 251 243 233 225 222 237 247 249 251 257 262 260 263 267 254 250 253 267
242 243 244 246 244 244 243 243 243 248 250 251 254 254 253 252 250 248 247 248 247 248 248 248 249 250 253 246 245 241 235 246 255 256 258 257 258 257 263 262 244 239 250 261 275
241 243 245 248 250 247 246 246 247 249 253 258 259 258 256 251 251 248 246 243 244 245 247 247 248 249 253 256 254 253 251 255 253 255 261 263 261 262 247 236 239 249 256 264 278
241 243 243 245 248 249 249 249 250 253 256 259 261 263 261 255 251 248 245 244 244 245 246 247 247 250 253 257 259 263 270 271 257 245 258 249 257 253 236 235 246 250 256 268 277
241 242 244 245 247 248 248 249 250 253 256 258 261 263 265 261 253 247 244 243 242 244 246 246 247 249 251 253 261 259 255 265 266 265 250 244 257 251 243 249 252 259 270 274 281
241 243 244 246 246 246 247 249 252 254 255 257 258 260 255 253 244 235 239 240 242 245 246 246 247 248 249 244 241 253 262 266 264 267 254 249 255 255 254 254 259 262 266 269 275
240 242 244 244 244 243 244 248 251 256 255 256 253 251 257 252 244 243 241 242 240 240 241 244 242 246 261 266 260 259 260 266 271 268 265 259 256 254 263 263 265 267 269 272 271
242 240 242 243 243 242 241 244 250 257 261 256 255 252 251 248 246 245 244 241 238 239 241 241 247 258 256 256 255 255 258 262 269 272 273 273 270 265 262 265 267 265 263 265 266
242 241 240 242 243 241 241 243 249 255 262 258 253 252 249 248 248 247 245 244 241 243 245 248 253 256 253 253 253 255 257 262 269 277 276 279 279 274 267 264 263 261 261 263 263
242 241 241 240 242 241 240 243 248 256 267 263 261 254 246 244 246 240 240 240 242 244 246 254 250 253 258 256 255 258 263 266 267 266 264 266 278 255 256 262 250 245 245 249 244
234 245 240 240 244 239 240 240 242 247 269 254 234 237 237 230 238 237 238 240 242 246 243 248 259 260 258 263 261 259 265 267 262 261 259 254 255 259 244 226 237 237 232 232 232
235 237 242 237 239 237 229 229 231 215 239 227 216 223 224 225 231 232 233 235 239 243 248 248 254 256 261 257 252 255 253 253 244 244 255 241 225 240 227 246 230 225 226 221 230
250 248 234 239 239 233 224 215 198 221 228 231 219 211 219 223 224 226 232 233 228 222 239 246 250 254 252 248 243 233 212 193 221 211 251 225 217 236 205 198 208 212 216 230 237
248 244 242 235 236 226 215 202 214 232 220 221 215 216 214 214 220 223 224 229 230 228 231 229 246 256 252 240 232 226 200 201 213 204 227 212 233 243 212 196 202 204 225 231 238
237 241 233 232 227 221 208 197 222 225 228 216 222 207 212 215 218 221 225 230 230 227 222 232 243 243 239 234 217 209 210 222 246 256 280 226 242 235 207 208 206 222 223 227 229
241 231 226 225 220 217 204 214 226 225 224 221 217 217 222 217 216 216 223 234 233 235 237 244 251 246 228 222 216 218 225 203 209 218 230 218 235 224 207 214 215 216 223 227 237
227 222 231 227 213 207 208 220 220 221 217 214 220 221 225 223 226 226 231 239 224 226 231 237 239 244 223 214 216 209 209 208 214 224 239 260 238 209 214 206 201 208 216 232 245
231 221 228 222 209 214 217 220 220 229 220 218 228 230 230 227 227 235 238 238 245 244 239 235 228 237 231 229 226 225 222 216 206 214 224 246 253 254 208 194 202 209 231 247 258
232 231 226 221 211 215 222 223 225 228 229 225 225 225 225 229 233 239 240 243 241 244 235 228 220 231 242 236 226 226 225 230 227 238 236 218 249 235 210 204 219 241 259 264 255
230 219 219 219 229 219 223 227 226 231 230 230 232 227 230 231 234 243 242 241 242 245 240 242 236 225 227 230 232 224 226 227 225 225 230 233 238 229 219 228 247 272 277 277 259
235 228 208 204 213 223 224 226 225 223 226 222 234 235 236 232 238 239 240 240 233 235 244 235 231 229 238 237 244 241 240 230 224 230 223 243 242 239 246 257 268 271 273 268 275
234 224 220 216 213 220 223 225 226 230 223 222 232 235 233 233 240 242 237 236 238 243 233 228 229 233 239 238 239 245 242 237 237 236 236 235 251 252 260 257 263 271 270 271 275
241 247 241 221 214 211 217 225 230 228 231 235 243 244 233 244 252 246 243 250 248 244 234 226 222 224 232 232 234 235 236 230 229 228 229 232 249 256 262 267 268 268 267 266 263
Height
3174 3176 3178 3178 3179 3180 3181 3182 3183 3184 3185 3186 3187 3188 3188 3189 3189 3189 3190 3191 3190 3191 3191 3191 3191 3192 3192 3192 3192 3192 3194 3193 3193 3194 3194 3195 3195 3195 3196 3196 3195 3195 3194 3194 3193
3173 3174 3176 3178 3178 3179 3180 3181 3182 3182 3183 3184 3186 3186 3187 3187 3187 3188 3188 3188 3188 3188 3189 3189 3190 3190 3190 3191 3191 3191 3192 3191 3191 3191 3192 3193 3194 3194 3195 3193 3193 3193 3193 3193 3192
3172 3173 3173 3175 3177 3178 3179 3179 3180 3180 3181 3182 3183 3184 3184 3185 3186 3186 3186 3186 3186 3187 3187 3187 3188 3189 3189 3189 3189 3189 3189 3189 3189 3189 3190 3191 3191 3191 3192 3192 3191 3191 3191 3191 3190
3169 3170 3171 3172 3174 3176 3177 3177 3178 3178 3179 3180 3180 3181 3182 3183 3186 3183 3183 3184 3184 3185 3185 3186 3186 3187 3187 3187 3187 3188 3187 3187 3187 3187 3188 3188 3189 3188 3189 3189 3189 3189 3189 3188 3188
3165 3167 3168 3169 3170 3172 3173 3174 3176 3176 3177 3177 3178 3178 3179 3181 3181 3181 3181 3182 3182 3183 3183 3183 3184 3184 3184 3184 3185 3185 3185 3185 3185 3185 3185 3185 3185 3185 3185 3186 3186 3186 3186 3186 3186
3160 3163 3164 3165 3166 3168 3170 3171 3172 3173 3174 3174 3174 3175 3177 3178 3178 3177 3178 3179 3179 3180 3180 3181 3181 3181 3181 3182 3183 3183 3183 3183 3182 3182 3181 3182 3182 3180 3182 3182 3182 3182 3182 3182 3183
3154 3157 3159 3160 3162 3164 3166 3167 3168 3169 3170 3170 3171 3172 3173 3175 3174 3174 3174 3175 3175 3176 3177 3177 3178 3179 3179 3179 3179 3179 3180 3179 3179 3178 3177 3178 3177 3177 3177 3178 3178 3178 3179 3179 3179
3149 3151 3153 3155 3157 3159 3161 3163 3164 3165 3165 3166 3166 3167 3167 3169 3169 3170 3170 3171 3172 3172 3173 3174 3175 3175 3175 3177 3176 3177 3176 3176 3175 3175 3175 3175 3174 3173 3174 3174 3174 3175 3175 3176 3176
3142 3145 3147 3149 3151 3154 3156 3157 3159 3160 3160 3161 3162 3162 3162 3163 3164 3165 3165 3166 3167 3168 3169 3170 3171 3171 3172 3173 3174 3172 3172 3171 3172 3171 3171 3172 3170 3169 3170 3171 3170 3171 3172 3171 3170
3135 3138 3141 3143 3145 3147 3150 3152 3153 3154 3155 3156 3155 3159 3157 3158 3158 3158 3160 3161 3162 3163 3164 3165 3166 3166 3167 3169 3169 3168 3167 3167 3167 3168 3168 3167 3167 3167 3167 3167 3167 3167 3166 3165 3165
3126 3130 3133 3135 3138 3141 3144 3146 3149 3149 3148 3151 3149 3149 3152 3153 3153 3154 3155 3156 3157 3158 3158 3159 3161 3159 3163 3165 3164 3164 3163 3163 3162 3163 3163 3162 3162 3163 3160 3160 3160 3160 3159 3159 3159
3118 3122 3125 3128 3130 3133 3136 3138 3142 3142 3140 3141 3142 3142 3144 3146 3148 3149 3151 3153 3152 3153 3154 3155 3153 3158 3159 3159 3159 3159 3159 3158 3159 3158 3157 3155 3153 3155 3153 3152 3152 3151 3151 3151 3153
3109 3113 3116 3119 3122 3125 3130 3134 3135 3135 3133 3131 3132 3133 3137 3140 3141 3142 3146 3145 3146 3147 3148 3149 3150 3151 3153 3153 3154 3154 3154 3155 3156 3153 3150 3148 3144 3144 3145 3142 3142 3142 3143 3144 3146
3099 3104 3107 3110 3112 3119 3123 3129 3130 3131 3127 3116 3121 3120 3125 3131 3129 3135 3136 3139 3139 3141 3144 3142 3143 3145 3146 3147 3150 3148 3150 3150 3150 3151 3149 3145 3139 3136 3136 3135 3134 3134 3135 3137 3139
3088 3094 3097 3100 3102 3110 3123 3122 3124 3129 3123 3109 3105 3105 3112 3119 3120 3123 3128 3129 3131 3134 3137 3135 3136 3138 3139 3141 3144 3143 3143 3145 3145 3144 3142 3141 3142 3126 3126 3127 3129 3130 3130 3132 3134
3076 3082 3088 3087 3089 3104 3110 3115 3119 3126 3099 3095 3096 3098 3104 3107 3110 3114 3118 3122 3124 3127 3128 3129 3129 3131 3132 3134 3137 3137 3139 3140 3140 3141 3135 3132 3134 3121 3121 3121 3123 3125 3126 3127 3129
3064 3068 3073 3078 3080 3096 3101 3106 3113 3099 3088 3086 3088 3093 3096 3100 3102 3106 3110 3112 3117 3120 3119 3120 3120 3123 3124 3127 3130 3130 3135 3138 3139 3138 3126 3123 3125 3115 3116 3117 3119 3121 3124 3126 3126
3052 3055 3056 3065 3071 3083 3089 3094 3088 3061 3074 3076 3081 3086 3089 3094 3096 3098 3102 3104 3108 3111 3113 3114 3115 3113 3113 3116 3119 3121 3127 3126 3124 3123 3118 3119 3113 3107 3109 3113 3116 3118 3120 3121 3122
3040 3041 3042 3047 3056 3068 3073 3070 3039 3053 3065 3072 3078 3080 3082 3086 3090 3092 3093 3094 3097 3102 3108 3107 3106 3106 3107 3109 3115 3114 3115 3121 3120 3118 3118 3109 3105 3105 3104 3107 3110 3112 3115 3116 3117
3024 3026 3028 3036 3043 3050 3050 3041 3037 3049 3058 3063 3065 3070 3072 3077 3080 3083 3084 3084 3090 3095 3099 3101 3102 3101 3101 3104 3106 3107 3110 3115 3115 3114 3110 3099 3098 3096 3096 3101 3103 3106 3109 3111 3112
3013 3011 3012 3024 3031 3030 3023 3018 3032 3043 3048 3055 3057 3061 3062 3066 3071 3071 3074 3078 3084 3089 3093 3095 3099 3097 3095 3091 3093 3099 3099 3103 3104 3103 3098 3092 3087 3087 3091 3095 3099 3103 3105 3107 3108
2998 2995 2999 3012 3013 3011 3012 3002 3024 3029 3041 3045 3048 3050 3052 3059 3061 3063 3063 3071 3077 3081 3082 3085 3087 3087 3085 3085 3087 3088 3086 3089 3091 3093 3091 3089 3079 3084 3086 3090 3093 3097 3100 3101 3100
2982 2986 2987 2993 2989 2994 2998 3005 3014 3020 3023 3032 3035 3039 3044 3048 3053 3051 3053 3063 3067 3069 3071 3075 3076 3082 3079 3080 3076 3075 3076 3078 3083 3084 3076 3084 3071 3079 3082 3085 3087 3089 3091 3092 3093
2972 2970 2972 2969 2979 2983 2989 2991 2999 3006 3014 3018 3022 3034 3035 3035 3039 3039 3043 3052 3056 3059 3063 3065 3064 3058 3053 3059 3061 3062 3064 3067 3071 3069 3066 3055 3068 3072 3074 3078 3079 3080 3081 3083 3084
2955 2954 2955 2957 2962 2969 2978 2979 2984 2992 2997 3008 3009 3010 3019 3027 3029 3023 3034 3042 3044 3047 3049 3050 3048 3051 3047 3052 3054 3051 3049 3054 3053 3050 3056 3053 3053 3060 3067 3070 3071 3071 3070 3072 3073
2942 2945 2948 2950 2956 2960 2962 2962 2970 2978 2984 2986 2991 2998 3008 3008 3002 3012 3021 3025 3027 3033 3035 3035 3033 3041 3037 3040 3042 3041 3039 3038 3041 3044 3044 3047 3043 3051 3056 3059 3061 3061 3061 3063 3063
2932 2938 2940 2939 2941 2948 2950 2952 2955 2970 2971 2976 2981 2991 2990 2984 3002 3007 3010 3011 3014 3016 3019 3023 3024 3027 3020 3028 3029 3027 3012 3024 3026 3028 3031 3032 3034 3043 3045 3050 3052 3051 3052 3053 3053